Location: Boissi�res
(45.2500°N, 2.3667°E)
Time: 15:12:48
(UTC+00:00)

ISS - Pass Details

Date: 25 September 2021
Orbit: 417 x 423 km, 51.6° (Epoch: 28 October)

Event Time Altitude Azimuth Distance (km) Brightness Sun altitude
Rises 18:05:00 0° 271° (W) 2,360 3.1 -4.9°
Reaches altitude 10° 18:07:14 10° 281° (WNW) 1,498 0.9 -5.2°
Maximum altitude 18:10:18 32° 347° (NNW) 747 -2.3 -5.8°
Drops below altitude 10° 18:13:23 10° 53° (NE) 1,504 -1.4 -6.3°
Enters shadow 18:14:35 - 60° (ENE) 1,962 -0.9 -6.5°
